Wetterdaten: Sonntag, 15.03.2015
Datum Zeit Auen-Temp. A-Temp. 2 Luftfeuchte Luftfeuchte Luftdruck Regen Wind Richtung Richtung Taupunkt Windchill Windben
15.03.2015 00:00 -0,8 C -0,3 C 78 % 78 % 1022,0 hPa 0,0 l/m 0,2 km/h (0 Bft) O-NO 67 -3,7 C -2,2 C 0,0 km/h (0 Bft)
15.03.2015 00:05 -0,7 C -0,4 C 78 % 78 % 1022,0 hPa 0,0 l/m 0,0 km/h (0 Bft) O-NO 67 -3,8 C -2,3 C 0,0 km/h (0 Bft)
15.03.2015 00:10 -0,7 C -0,4 C 78 % 78 % 1021,8 hPa 0,0 l/m 0,0 km/h (0 Bft) N-NO 22 -3,8 C -2,2 C 0,0 km/h (0 Bft)
15.03.2015 00:15 -0,7 C -0,5 C 78 % 78 % 1021,8 hPa 0,0 l/m 0,0 km/h (0 Bft) N-NO 22 -3,9 C -2,1 C 0,0 km/h (0 Bft)
15.03.2015 00:20 -0,8 C -0,5 C 79 % 79 % 1021,8 hPa 0,0 l/m 0,0 km/h (0 Bft) N-NO 22 -3,7 C -2,0 C 0,0 km/h (0 Bft)
15.03.2015 00:25 -0,6 C -0,5 C 79 % 79 % 1021,8 hPa 0,0 l/m 0,0 km/h (0 Bft) NO 45 -3,7 C -1,9 C 0,0 km/h (0 Bft)
15.03.2015 00:30 -0,6 C -0,5 C 79 % 79 % 1021,6 hPa 0,0 l/m 0,0 km/h (0 Bft) NO 45 -3,7 C -1,9 C 0,0 km/h (0 Bft)
15.03.2015 00:35 -0,6 C -0,4 C 79 % 79 % 1021,6 hPa 0,0 l/m 0,0 km/h (0 Bft) SO 135 -3,6 C -1,9 C 0,0 km/h (0 Bft)
15.03.2015 00:40 -0,6 C -0,3 C 79 % 79 % 1021,6 hPa 0,0 l/m 0,2 km/h (0 Bft) S-SO 157 -3,5 C -1,8 C 0,0 km/h (0 Bft)
15.03.2015 00:45 -0,7 C -0,4 C 79 % 79 % 1021,6 hPa 0,0 l/m 0,2 km/h (0 Bft) SO 135 -3,6 C -1,9 C 0,0 km/h (0 Bft)
15.03.2015 00:50 -0,8 C -0,4 C 79 % 79 % 1021,8 hPa 0,0 l/m 0,0 km/h (0 Bft) O 90 -3,6 C -2,0 C 0,0 km/h (0 Bft)
15.03.2015 00:55 -0,8 C -0,4 C 80 % 80 % 1021,8 hPa 0,0 l/m 0,2 km/h (0 Bft) O-SO 112 -3,4 C -2,0 C 0,0 km/h (0 Bft)
15.03.2015 01:00 -1,0 C -0,4 C 80 % 80 % 1021,8 hPa 0,0 l/m 0,2 km/h (0 Bft) O 90 -3,4 C -2,1 C 3,1 km/h (1 Bft)
15.03.2015 01:05 -1,0 C -0,5 C 80 % 80 % 1021,8 hPa 0,0 l/m 0,0 km/h (0 Bft) S-SO 157 -3,5 C -2,2 C 0,0 km/h (0 Bft)
15.03.2015 01:10 -0,8 C -0,5 C 80 % 80 % 1021,8 hPa 0,0 l/m 0,2 km/h (0 Bft) S-SO 157 -3,5 C -2,0 C 0,0 km/h (0 Bft)
15.03.2015 01:15 -0,5 C -0,4 C 80 % 80 % 1021,8 hPa 0,0 l/m 0,6 km/h (0 Bft) O-SO 112 -3,4 C -1,7 C 0,0 km/h (0 Bft)
15.03.2015 01:20 -0,5 C -0,3 C 80 % 80 % 1021,8 hPa 0,0 l/m 0,6 km/h (0 Bft) N-NW 337 -3,3 C -1,5 C 3,4 km/h (1 Bft)
15.03.2015 01:25 -0,3 C -0,3 C 80 % 80 % 1021,8 hPa 0,0 l/m 0,3 km/h (0 Bft) N-NO 22 -3,3 C -1,4 C 0,0 km/h (0 Bft)
15.03.2015 01:30 -0,2 C -0,2 C 81 % 81 % 1021,7 hPa 0,0 l/m 0,0 km/h (0 Bft) O-NO 67 -3,1 C -1,3 C 0,0 km/h (0 Bft)
15.03.2015 01:35 -0,2 C -0,2 C 81 % 81 % 1021,7 hPa 0,0 l/m 0,2 km/h (0 Bft) N-NO 22 -3,1 C -1,2 C 0,0 km/h (0 Bft)
15.03.2015 01:40 -0,1 C 0,0 C 81 % 81 % 1021,7 hPa 0,0 l/m 0,2 km/h (0 Bft) NO 45 -2,9 C -1,1 C 4,0 km/h (1 Bft)
15.03.2015 01:45 0,0 C 0,0 C 81 % 81 % 1021,7 hPa 0,0 l/m 0,6 km/h (0 Bft) N-NO 22 -2,9 C -1,0 C 1,8 km/h (1 Bft)
15.03.2015 01:50 0,0 C 0,0 C 81 % 81 % 1021,3 hPa 0,0 l/m 0,6 km/h (0 Bft) O-SO 112 -2,9 C -0,9 C 0,0 km/h (0 Bft)
15.03.2015 01:55 0,0 C 0,0 C 81 % 81 % 1021,3 hPa 0,0 l/m 0,2 km/h (0 Bft) N-NO 22 -2,9 C -0,9 C 0,0 km/h (0 Bft)
15.03.2015 02:00 0,0 C 0,0 C 82 % 82 % 1021,3 hPa 0,0 l/m 0,2 km/h (0 Bft) NW 315 -2,7 C -0,8 C 0,0 km/h (0 Bft)
15.03.2015 02:05 0,1 C 0,1 C 82 % 82 % 1021,3 hPa 0,0 l/m 0,6 km/h (0 Bft) N-NO 22 -2,6 C -0,8 C 2,4 km/h (1 Bft)
15.03.2015 02:10 0,1 C 0,1 C 82 % 82 % 1021,6 hPa 0,0 l/m 1,8 km/h (1 Bft) NO 45 -2,6 C -0,6 C 4,8 km/h (1 Bft)
15.03.2015 02:15 0,1 C 0,1 C 82 % 82 % 1021,6 hPa 0,0 l/m 1,9 km/h (1 Bft) NO 45 -2,6 C -0,6 C 2,9 km/h (1 Bft)
15.03.2015 02:20 0,1 C 0,1 C 82 % 82 % 1021,6 hPa 0,0 l/m 1,8 km/h (1 Bft) NO 45 -2,6 C -0,6 C 2,3 km/h (1 Bft)
15.03.2015 02:25 0,1 C 0,1 C 82 % 82 % 1021,6 hPa 0,0 l/m 1,3 km/h (1 Bft) N-NO 22 -2,6 C -0,5 C 0,0 km/h (0 Bft)
15.03.2015 02:30 0,1 C 0,1 C 82 % 82 % 1021,4 hPa 0,0 l/m 0,8 km/h (0 Bft) NO 45 -2,6 C -0,5 C 3,1 km/h (1 Bft)
15.03.2015 02:35 0,1 C 0,1 C 82 % 82 % 1021,4 hPa 0,0 l/m 0,6 km/h (0 Bft) N-NO 22 -2,6 C -0,5 C 1,6 km/h (1 Bft)
15.03.2015 02:40 0,0 C 0,1 C 82 % 82 % 1021,4 hPa 0,0 l/m 0,6 km/h (0 Bft) NO 45 -2,6 C -0,6 C 1,9 km/h (1 Bft)
15.03.2015 02:45 0,0 C 0,1 C 82 % 82 % 1021,4 hPa 0,0 l/m 0,3 km/h (0 Bft) O-NO 67 -2,6 C -0,6 C 0,0 km/h (0 Bft)
15.03.2015 02:50 0,0 C 0,1 C 82 % 82 % 1021,2 hPa 0,0 l/m 0,2 km/h (0 Bft) O-NO 67 -2,6 C -0,6 C 0,0 km/h (0 Bft)
15.03.2015 02:55 0,0 C 0,0 C 82 % 82 % 1021,2 hPa 0,0 l/m 0,0 km/h (0 Bft) O-NO 67 -2,7 C -0,6 C 0,0 km/h (0 Bft)
15.03.2015 03:00 0,0 C 0,0 C 82 % 82 % 1021,2 hPa 0,0 l/m 0,0 km/h (0 Bft) NW 315 -2,7 C -0,6 C 0,0 km/h (0 Bft)
15.03.2015 03:05 0,0 C 0,0 C 82 % 82 % 1021,2 hPa 0,0 l/m 0,3 km/h (0 Bft) O-NO 67 -2,7 C -0,6 C 3,1 km/h (1 Bft)
15.03.2015 03:10 0,0 C 0,0 C 82 % 82 % 1021,2 hPa 0,0 l/m 1,0 km/h (0 Bft) N-NO 22 -2,7 C -0,6 C 3,1 km/h (1 Bft)
15.03.2015 03:15 0,0 C 0,0 C 82 % 82 % 1021,2 hPa 0,0 l/m 1,0 km/h (0 Bft) O-NO 67 -2,7 C -0,6 C 0,0 km/h (0 Bft)
15.03.2015 03:20 0,0 C 0,0 C 82 % 82 % 1021,2 hPa 0,0 l/m 0,8 km/h (0 Bft) W 270 -2,7 C -0,6 C 0,0 km/h (0 Bft)
15.03.2015 03:25 0,0 C 0,0 C 82 % 82 % 1021,2 hPa 0,0 l/m 0,8 km/h (0 Bft) N-NO 22 -2,7 C -0,6 C 0,0 km/h (0 Bft)
15.03.2015 03:30 0,0 C 0,0 C 82 % 82 % 1021,2 hPa 0,0 l/m 1,3 km/h (1 Bft) O-NO 67 -2,7 C -0,6 C 3,7 km/h (1 Bft)
15.03.2015 03:35 0,0 C 0,0 C 83 % 83 % 1021,2 hPa 0,0 l/m 1,6 km/h (1 Bft) NO 45 -2,5 C -0,6 C 3,4 km/h (1 Bft)
15.03.2015 03:40 0,0 C 0,0 C 83 % 83 % 1021,2 hPa 0,0 l/m 2,1 km/h (1 Bft) NO 45 -2,5 C -0,6 C 2,1 km/h (1 Bft)
15.03.2015 03:45 0,0 C 0,0 C 83 % 83 % 1021,2 hPa 0,0 l/m 1,6 km/h (1 Bft) O-NO 67 -2,5 C -0,6 C 1,8 km/h (1 Bft)
15.03.2015 03:50 0,0 C 0,0 C 83 % 83 % 1021,2 hPa 0,0 l/m 1,4 km/h (1 Bft) N-NO 22 -2,5 C -0,6 C 2,7 km/h (1 Bft)
15.03.2015 03:55 -0,1 C 0,0 C 83 % 83 % 1021,2 hPa 0,0 l/m 1,1 km/h (1 Bft) NO 45 -2,5 C -0,7 C 3,1 km/h (1 Bft)
15.03.2015 04:00 -0,2 C -0,2 C 83 % 83 % 1021,2 hPa 0,0 l/m 1,3 km/h (1 Bft) W 270 -2,7 C -0,7 C 4,2 km/h (1 Bft)
15.03.2015 04:05 -0,2 C -0,2 C 83 % 83 % 1021,2 hPa 0,0 l/m 1,9 km/h (1 Bft) O-NO 67 -2,7 C -0,7 C 2,7 km/h (1 Bft)
15.03.2015 04:10 -0,2 C -0,2 C 83 % 83 % 1021,2 hPa 0,0 l/m 2,9 km/h (1 Bft) O-SO 112 -2,7 C -1,2 C 7,2 km/h (2 Bft)
15.03.2015 04:15 -0,2 C -0,2 C 83 % 83 % 1021,2 hPa 0,0 l/m 2,6 km/h (1 Bft) N-NO 22 -2,7 C -1,0 C 5,1 km/h (1 Bft)
15.03.2015 04:20 -0,2 C -0,2 C 83 % 83 % 1021,2 hPa 0,0 l/m 2,4 km/h (1 Bft) NO 45 -2,7 C -0,8 C 2,3 km/h (1 Bft)
15.03.2015 04:25 -0,3 C -0,3 C 83 % 83 % 1021,2 hPa 0,0 l/m 2,9 km/h (1 Bft) N-NO 22 -2,8 C -1,3 C 5,0 km/h (1 Bft)
15.03.2015 04:30 -0,3 C -0,3 C 83 % 83 % 1021,6 hPa 0,0 l/m 3,1 km/h (1 Bft) O-NO 67 -2,8 C -1,5 C 1,9 km/h (1 Bft)
15.03.2015 04:35 -0,3 C -0,3 C 84 % 84 % 1021,6 hPa 0,0 l/m 2,7 km/h (1 Bft) O-SO 112 -2,7 C -1,3 C 0,0 km/h (0 Bft)
15.03.2015 04:40 -0,3 C -0,3 C 84 % 84 % 1021,6 hPa 0,0 l/m 0,6 km/h (0 Bft) N-NO 22 -2,7 C -1,1 C 2,7 km/h (1 Bft)
15.03.2015 04:45 -0,3 C -0,3 C 84 % 84 % 1021,6 hPa 0,0 l/m 0,6 km/h (0 Bft) N-NO 22 -2,7 C -1,1 C 3,1 km/h (1 Bft)
15.03.2015 04:50 -0,3 C -0,3 C 84 % 84 % 1021,2 hPa 0,0 l/m 1,8 km/h (1 Bft) NO 45 -2,7 C -1,0 C 1,8 km/h (1 Bft)
15.03.2015 04:55 -0,3 C -0,3 C 84 % 84 % 1021,2 hPa 0,0 l/m 2,1 km/h (1 Bft) O-NO 67 -2,7 C -1,0 C 3,4 km/h (1 Bft)
15.03.2015 05:00 -0,4 C -0,4 C 84 % 84 % 1021,2 hPa 0,0 l/m 1,6 km/h (1 Bft) NO 45 -2,8 C -1,0 C 2,3 km/h (1 Bft)
15.03.2015 05:05 -0,3 C -0,3 C 84 % 84 % 1021,2 hPa 0,0 l/m 1,6 km/h (1 Bft) N-NO 22 -2,7 C -1,0 C 3,7 km/h (1 Bft)
15.03.2015 05:10 -0,4 C -0,4 C 84 % 84 % 1021,1 hPa 0,0 l/m 1,3 km/h (1 Bft) NO 45 -2,8 C -1,0 C 0,0 km/h (0 Bft)
15.03.2015 05:15 -0,4 C -0,4 C 84 % 84 % 1021,1 hPa 0,0 l/m 1,0 km/h (0 Bft) N-NW 337 -2,8 C -1,0 C 0,0 km/h (0 Bft)
15.03.2015 05:20 -0,4 C -0,4 C 84 % 84 % 1021,1 hPa 0,0 l/m 0,8 km/h (0 Bft) NO 45 -2,8 C -1,0 C 2,6 km/h (1 Bft)
15.03.2015 05:25 -0,4 C -0,4 C 84 % 84 % 1021,1 hPa 0,0 l/m 1,1 km/h (1 Bft) N-NO 22 -2,8 C -1,0 C 0,0 km/h (0 Bft)
15.03.2015 05:30 -0,5 C -0,4 C 84 % 84 % 1021,1 hPa 0,0 l/m 0,5 km/h (0 Bft) NO 45 -2,8 C -1,1 C 1,6 km/h (1 Bft)
15.03.2015 05:35 -0,4 C -0,4 C 84 % 84 % 1021,1 hPa 0,0 l/m 0,5 km/h (0 Bft) O-NO 67 -2,8 C -1,1 C 2,3 km/h (1 Bft)
15.03.2015 05:40 -0,4 C -0,4 C 84 % 84 % 1021,1 hPa 0,0 l/m 0,8 km/h (0 Bft) N-NO 22 -2,8 C -1,1 C 1,8 km/h (1 Bft)
15.03.2015 05:45 -0,4 C -0,4 C 84 % 84 % 1021,1 hPa 0,0 l/m 1,1 km/h (1 Bft) N-NW 337 -2,8 C -1,1 C 1,8 km/h (1 Bft)
15.03.2015 05:50 -0,4 C -0,4 C 84 % 84 % 1021,1 hPa 0,0 l/m 1,4 km/h (1 Bft) NO 45 -2,8 C -1,1 C 1,8 km/h (1 Bft)
15.03.2015 05:55 -0,5 C -0,5 C 84 % 84 % 1021,1 hPa 0,0 l/m 1,4 km/h (1 Bft) NO 45 -2,9 C -1,1 C 1,8 km/h (1 Bft)
15.03.2015 06:00 -0,5 C -0,5 C 84 % 84 % 1021,1 hPa 0,0 l/m 1,9 km/h (1 Bft) O-NO 67 -2,9 C -1,2 C 1,9 km/h (1 Bft)
15.03.2015 06:05 -0,6 C -0,5 C 84 % 84 % 1021,1 hPa 0,0 l/m 1,8 km/h (1 Bft) O 90 -2,9 C -1,2 C 0,0 km/h (0 Bft)
15.03.2015 06:10 -0,7 C -0,7 C 84 % 84 % 1021,1 hPa 0,0 l/m 1,3 km/h (1 Bft) O-NO 67 -3,1 C -1,2 C 2,7 km/h (1 Bft)
15.03.2015 06:15 -0,7 C -0,7 C 84 % 84 % 1021,1 hPa 0,0 l/m 1,4 km/h (1 Bft) NO 45 -3,1 C -1,2 C 2,4 km/h (1 Bft)
15.03.2015 06:20 -0,7 C -0,7 C 84 % 84 % 1021,1 hPa 0,0 l/m 2,4 km/h (1 Bft) O 90 -3,1 C -1,4 C 3,1 km/h (1 Bft)
15.03.2015 06:25 -0,7 C -0,7 C 84 % 84 % 1021,1 hPa 0,0 l/m 2,3 km/h (1 Bft) O-NO 67 -3,1 C -1,3 C 0,0 km/h (0 Bft)
15.03.2015 06:30 -0,7 C -0,7 C 84 % 84 % 1021,2 hPa 0,0 l/m 1,1 km/h (1 Bft) O 90 -3,1 C -1,3 C 2,1 km/h (1 Bft)
15.03.2015 06:35 -0,7 C -0,7 C 84 % 84 % 1021,2 hPa 0,0 l/m 0,8 km/h (0 Bft) N-NO 22 -3,1 C -1,3 C 4,8 km/h (1 Bft)
15.03.2015 06:40 -0,8 C -0,8 C 84 % 84 % 1021,2 hPa 0,0 l/m 1,9 km/h (1 Bft) NO 45 -3,2 C -1,3 C 3,9 km/h (1 Bft)
15.03.2015 06:45 -0,8 C -0,8 C 84 % 84 % 1021,2 hPa 0,0 l/m 3,1 km/h (1 Bft) NO 45 -3,2 C -1,9 C 3,7 km/h (1 Bft)
15.03.2015 06:50 -0,8 C -0,8 C 84 % 84 % 1021,4 hPa 0,0 l/m 2,1 km/h (1 Bft) N-NO 22 -3,2 C -1,3 C 2,4 km/h (1 Bft)
15.03.2015 06:55 -0,8 C -0,8 C 84 % 84 % 1021,4 hPa 0,0 l/m 1,8 km/h (1 Bft) NW 315 -3,2 C -1,3 C 0,0 km/h (0 Bft)
15.03.2015 07:00 -0,8 C -0,8 C 84 % 84 % 1021,4 hPa 0,0 l/m 1,0 km/h (0 Bft) N-NO 22 -3,2 C -1,3 C 4,0 km/h (1 Bft)
15.03.2015 07:05 -0,9 C -0,9 C 84 % 84 % 1021,4 hPa 0,0 l/m 0,8 km/h (0 Bft) NW 315 -3,3 C -1,3 C 0,0 km/h (0 Bft)
15.03.2015 07:10 -0,9 C -0,9 C 84 % 84 % 1021,7 hPa 0,0 l/m 1,0 km/h (0 Bft) N-NO 22 -3,3 C -1,3 C 2,3 km/h (1 Bft)
15.03.2015 07:15 -0,9 C -0,9 C 84 % 84 % 1021,7 hPa 0,0 l/m 0,5 km/h (0 Bft) N-NW 337 -3,3 C -1,3 C 0,0 km/h (0 Bft)
15.03.2015 07:20 -0,9 C -0,9 C 84 % 84 % 1021,7 hPa 0,0 l/m 1,6 km/h (1 Bft) NO 45 -3,3 C -1,3 C 1,8 km/h (1 Bft)
15.03.2015 07:25 -0,9 C -0,9 C 84 % 84 % 1021,7 hPa 0,0 l/m 1,1 km/h (1 Bft) N-NW 337 -3,3 C -1,3 C 0,0 km/h (0 Bft)
15.03.2015 07:30 -0,9 C -0,9 C 84 % 84 % 1021,8 hPa 0,0 l/m 1,3 km/h (1 Bft) N-NW 337 -3,3 C -1,3 C 5,1 km/h (1 Bft)
15.03.2015 07:35 -1,0 C -1,0 C 85 % 85 % 1021,8 hPa 0,0 l/m 2,1 km/h (1 Bft) N 360 -3,2 C -1,3 C 3,2 km/h (1 Bft)
15.03.2015 07:40 -1,0 C -1,0 C 85 % 85 % 1021,8 hPa 0,0 l/m 1,9 km/h (1 Bft) N-NO 22 -3,2 C -1,3 C 2,6 km/h (1 Bft)
15.03.2015 07:45 -1,0 C -1,0 C 85 % 85 % 1021,8 hPa 0,0 l/m 1,4 km/h (1 Bft) NW 315 -3,2 C -1,2 C 2,3 km/h (1 Bft)
15.03.2015 07:50 -1,0 C -1,0 C 85 % 85 % 1021,7 hPa 0,0 l/m 1,3 km/h (1 Bft) NO 45 -3,2 C -1,2 C 0,0 km/h (0 Bft)
15.03.2015 07:55 -1,0 C -1,0 C 85 % 85 % 1021,7 hPa 0,0 l/m 1,3 km/h (1 Bft) NO 45 -3,2 C -1,1 C 0,0 km/h (0 Bft)
15.03.2015 08:00 -0,9 C -0,9 C 85 % 85 % 1021,7 hPa 0,0 l/m 0,5 km/h (0 Bft) W-NW 292 -3,1 C -0,9 C 0,0 km/h (0 Bft)
15.03.2015 08:05 -0,9 C -0,9 C 85 % 85 % 1021,7 hPa 0,0 l/m 0,2 km/h (0 Bft) S-SW 202 -3,1 C -0,8 C 0,0 km/h (0 Bft)
15.03.2015 08:10 -0,9 C -0,9 C 85 % 85 % 1021,9 hPa 0,0 l/m 0,8 km/h (0 Bft) O-NO 67 -3,1 C -0,7 C 0,0 km/h (0 Bft)
15.03.2015 08:15 -0,9 C -0,9 C 85 % 85 % 1021,9 hPa 0,0 l/m 1,1 km/h (1 Bft) NO 45 -3,1 C -0,6 C 4,3 km/h (1 Bft)
15.03.2015 08:20 -0,8 C -0,8 C 85 % 85 % 1021,9 hPa 0,0 l/m 1,3 km/h (1 Bft) N-NO 22 -3,0 C -0,5 C 4,5 km/h (1 Bft)
15.03.2015 08:25 -0,8 C -0,8 C 85 % 85 % 1021,9 hPa 0,0 l/m 2,4 km/h (1 Bft) O-NO 67 -3,0 C -0,4 C 4,2 km/h (1 Bft)
15.03.2015 08:30 -0,7 C -0,7 C 85 % 85 % 1021,9 hPa 0,0 l/m 2,4 km/h (1 Bft) O-NO 67 -2,9 C -0,4 C 2,4 km/h (1 Bft)
15.03.2015 08:35 -0,7 C -0,7 C 85 % 85 % 1021,9 hPa 0,0 l/m 2,3 km/h (1 Bft) NO 45 -2,9 C -0,4 C 4,2 km/h (1 Bft)
15.03.2015 08:40 -0,8 C -0,8 C 85 % 85 % 1021,9 hPa 0,0 l/m 3,1 km/h (1 Bft) NW 315 -3,0 C -0,9 C 3,5 km/h (1 Bft)
15.03.2015 08:45 -0,7 C -0,7 C 85 % 85 % 1021,9 hPa 0,0 l/m 3,4 km/h (1 Bft) O-NO 67 -2,9 C -1,0 C 3,1 km/h (1 Bft)
15.03.2015 08:50 -0,7 C -0,7 C 85 % 85 % 1021,8 hPa 0,0 l/m 2,1 km/h (1 Bft) N-NO 22 -2,9 C -0,2 C 2,9 km/h (1 Bft)
15.03.2015 08:55 -0,8 C -0,8 C 85 % 85 % 1021,8 hPa 0,0 l/m 2,6 km/h (1 Bft) NO 45 -3,0 C -0,4 C 4,8 km/h (1 Bft)
15.03.2015 09:00 -0,8 C -0,8 C 85 % 85 % 1021,8 hPa 0,0 l/m 3,9 km/h (1 Bft) N 360 -3,0 C -1,3 C 5,3 km/h (1 Bft)
15.03.2015 09:05 -0,8 C -0,8 C 85 % 85 % 1021,8 hPa 0,0 l/m 4,2 km/h (1 Bft) N-NO 22 -3,0 C -1,4 C 3,2 km/h (1 Bft)
15.03.2015 09:10 -0,8 C -0,8 C 85 % 85 % 1021,8 hPa 0,0 l/m 3,1 km/h (1 Bft) NO 45 -3,0 C -0,5 C 3,2 km/h (1 Bft)
15.03.2015 09:15 -0,7 C -0,7 C 85 % 85 % 1021,8 hPa 0,0 l/m 2,9 km/h (1 Bft) N-NO 22 -2,9 C -0,3 C 5,8 km/h (2 Bft)
15.03.2015 09:20 -0,8 C -0,8 C 85 % 85 % 1021,8 hPa 0,0 l/m 3,1 km/h (1 Bft) N-NO 22 -3,0 C -0,5 C 7,6 km/h (2 Bft)
15.03.2015 09:25 -0,8 C -0,8 C 85 % 85 % 1021,8 hPa 0,0 l/m 3,4 km/h (1 Bft) O-NO 67 -3,0 C -0,6 C 2,1 km/h (1 Bft)
15.03.2015 09:30 -0,7 C -0,7 C 85 % 85 % 1021,8 hPa 0,0 l/m 3,1 km/h (1 Bft) NO 45 -2,9 C -0,2 C 3,1 km/h (1 Bft)
15.03.2015 09:35 -0,8 C -0,8 C 85 % 85 % 1021,8 hPa 0,0 l/m 3,1 km/h (1 Bft) NO 45 -3,0 C -0,1 C 4,0 km/h (1 Bft)
15.03.2015 09:40 -0,7 C -0,7 C 85 % 85 % 1021,8 hPa 0,0 l/m 2,9 km/h (1 Bft) O-NO 67 -2,9 C 0,4 C 8,0 km/h (2 Bft)
15.03.2015 09:45 -0,5 C -0,5 C 85 % 85 % 1021,8 hPa 0,0 l/m 1,4 km/h (1 Bft) NO 45 -2,7 C 1,0 C 1,8 km/h (1 Bft)
15.03.2015 09:50 -0,4 C -0,4 C 85 % 85 % 1021,9 hPa 0,0 l/m 0,8 km/h (0 Bft) O-NO 67 -2,6 C 1,5 C 3,5 km/h (1 Bft)
15.03.2015 09:55 -0,4 C -0,4 C 85 % 85 % 1021,9 hPa 0,0 l/m 1,1 km/h (1 Bft) NO 45 -2,6 C 1,5 C 4,7 km/h (1 Bft)
15.03.2015 10:00 -0,3 C -0,3 C 85 % 85 % 1021,9 hPa 0,0 l/m 2,3 km/h (1 Bft) N-NO 22 -2,5 C 1,5 C 3,4 km/h (1 Bft)
15.03.2015 10:05 -0,3 C -0,3 C 85 % 85 % 1021,9 hPa 0,0 l/m 2,7 km/h (1 Bft) O-NO 67 -2,5 C 1,4 C 0,0 km/h (0 Bft)
15.03.2015 10:10 -0,3 C -0,3 C 85 % 85 % 1022,0 hPa 0,0 l/m 3,2 km/h (1 Bft) NO 45 -2,5 C 1,3 C 8,5 km/h (2 Bft)
15.03.2015 10:15 -0,2 C -0,2 C 85 % 85 % 1022,0 hPa 0,0 l/m 2,3 km/h (1 Bft) W-NW 292 -2,4 C 2,1 C 1,6 km/h (1 Bft)
15.03.2015 10:20 -0,1 C -0,1 C 85 % 85 % 1022,0 hPa 0,0 l/m 1,3 km/h (1 Bft) NO 45 -2,3 C 2,6 C 0,0 km/h (0 Bft)
15.03.2015 10:25 0,1 C 0,1 C 85 % 85 % 1022,0 hPa 0,0 l/m 1,0 km/h (0 Bft) SO 135 -2,1 C 3,1 C 0,0 km/h (0 Bft)
15.03.2015 10:30 0,3 C 0,3 C 85 % 85 % 1021,8 hPa 0,0 l/m 1,6 km/h (1 Bft) NO 45 -1,9 C 3,5 C 4,8 km/h (1 Bft)
15.03.2015 10:35 0,3 C 0,3 C 85 % 85 % 1021,8 hPa 0,0 l/m 2,4 km/h (1 Bft) SO 135 -1,9 C 3,7 C 1,8 km/h (1 Bft)
15.03.2015 10:40 0,3 C 0,3 C 84 % 84 % 1021,8 hPa 0,0 l/m 2,7 km/h (1 Bft) O-NO 67 -2,1 C 4,0 C 0,0 km/h (0 Bft)
15.03.2015 10:45 0,5 C 0,5 C 84 % 84 % 1021,8 hPa 0,0 l/m 2,3 km/h (1 Bft) N-NO 22 -1,9 C 4,4 C 2,4 km/h (1 Bft)
15.03.2015 10:50 0,7 C 0,7 C 84 % 84 % 1021,8 hPa 0,0 l/m 1,8 km/h (1 Bft) O-NO 67 -1,7 C 5,0 C 1,8 km/h (1 Bft)
15.03.2015 10:55 0,9 C 0,9 C 84 % 84 % 1021,8 hPa 0,0 l/m 1,9 km/h (1 Bft) NO 45 -1,5 C 5,5 C 3,7 km/h (1 Bft)
15.03.2015 11:00 1,1 C 1,1 C 83 % 83 % 1021,8 hPa 0,0 l/m 2,6 km/h (1 Bft) N-NO 22 -1,5 C 5,6 C 4,8 km/h (1 Bft)
15.03.2015 11:05 1,2 C 1,2 C 83 % 83 % 1021,8 hPa 0,0 l/m 3,1 km/h (1 Bft) N-NO 22 -1,4 C 5,6 C 0,0 km/h (0 Bft)
15.03.2015 11:10 1,3 C 1,3 C 82 % 82 % 1021,8 hPa 0,0 l/m 4,3 km/h (1 Bft) S 180 -1,4 C 5,2 C 9,5 km/h (2 Bft)
15.03.2015 11:15 1,3 C 1,3 C 82 % 82 % 1021,8 hPa 0,0 l/m 4,3 km/h (1 Bft) S 180 -1,4 C 5,2 C 4,8 km/h (1 Bft)
15.03.2015 11:20 1,4 C 1,4 C 81 % 81 % 1021,8 hPa 0,0 l/m 4,0 km/h (1 Bft) NO 45 -1,5 C 5,5 C 2,9 km/h (1 Bft)
15.03.2015 11:25 1,6 C 1,6 C 81 % 81 % 1021,8 hPa 0,0 l/m 3,7 km/h (1 Bft) N-NO 22 -1,3 C 6,4 C 5,5 km/h (1 Bft)
15.03.2015 11:30 1,5 C 1,5 C 80 % 80 % 1022,0 hPa 0,0 l/m 3,7 km/h (1 Bft) N 360 -1,6 C 6,4 C 6,8 km/h (2 Bft)
15.03.2015 11:35 1,7 C 1,7 C 80 % 80 % 1022,0 hPa 0,0 l/m 4,2 km/h (1 Bft) O-NO 67 -1,4 C 6,8 C 5,6 km/h (1 Bft)
15.03.2015 11:40 1,5 C 1,5 C 79 % 79 % 1022,0 hPa 0,0 l/m 3,5 km/h (1 Bft) N-NO 22 -1,7 C 6,9 C 2,6 km/h (1 Bft)
15.03.2015 11:45 1,6 C 1,6 C 79 % 79 % 1022,1 hPa 0,0 l/m 4,5 km/h (1 Bft) N-NO 22 -1,6 C 7,4 C 7,2 km/h (2 Bft)
15.03.2015 11:50 1,8 C 1,8 C 79 % 79 % 1022,1 hPa 0,0 l/m 4,7 km/h (1 Bft) O-NO 67 -1,4 C 7,9 C 4,8 km/h (1 Bft)
15.03.2015 11:55 1,8 C 1,8 C 79 % 79 % 1022,1 hPa 0,0 l/m 4,7 km/h (1 Bft) O-NO 67 -1,4 C 7,9 C 4,8 km/h (1 Bft)
15.03.2015 12:00 2,2 C 2,2 C 78 % 78 % 1022,1 hPa 0,0 l/m 4,3 km/h (1 Bft) NO 45 -1,2 C 9,1 C 7,1 km/h (2 Bft)
15.03.2015 12:05 2,2 C 2,2 C 78 % 78 % 1022,1 hPa 0,0 l/m 3,7 km/h (1 Bft) NO 45 -1,2 C 9,2 C 3,9 km/h (1 Bft)
15.03.2015 12:10 2,6 C 2,6 C 78 % 78 % 1022,6 hPa 0,0 l/m 3,2 km/h (1 Bft) NO 45 -0,8 C 10,0 C 1,9 km/h (1 Bft)
15.03.2015 12:15 2,7 C 2,7 C 78 % 78 % 1022,6 hPa 0,0 l/m 3,2 km/h (1 Bft) NO 45 -0,7 C 10,4 C 7,2 km/h (2 Bft)
15.03.2015 12:20 2,8 C 2,8 C 77 % 77 % 1022,6 hPa 0,0 l/m 3,2 km/h (1 Bft) NO 45 -0,8 C 10,8 C 3,2 km/h (1 Bft)
15.03.2015 12:25 2,9 C 2,9 C 77 % 77 % 1022,6 hPa 0,0 l/m 3,4 km/h (1 Bft) O-NO 67 -0,7 C 10,8 C 6,1 km/h (2 Bft)
15.03.2015 12:30 3,4 C 3,4 C 76 % 76 % 1023,4 hPa 0,0 l/m 3,2 km/h (1 Bft) NO 45 -0,4 C 11,2 C 6,8 km/h (2 Bft)
15.03.2015 12:35 3,5 C 3,5 C 75 % 75 % 1023,4 hPa 0,0 l/m 3,5 km/h (1 Bft) NO 45 -0,5 C 11,2 C 6,0 km/h (2 Bft)
15.03.2015 12:40 3,8 C 3,8 C 74 % 74 % 1023,4 hPa 0,0 l/m 4,0 km/h (1 Bft) NO 45 -0,4 C 11,1 C 4,0 km/h (1 Bft)
15.03.2015 12:45 4,0 C 4,0 C 73 % 73 % 1023,4 hPa 0,0 l/m 4,0 km/h (1 Bft) N-NO 22 -0,4 C 11,1 C 7,9 km/h (2 Bft)
15.03.2015 12:50 4,5 C 4,5 C 72 % 72 % 1023,5 hPa 0,0 l/m 3,5 km/h (1 Bft) O-NO 67 -0,1 C 11,7 C 4,8 km/h (1 Bft)
15.03.2015 12:55 4,6 C 4,6 C 72 % 72 % 1023,5 hPa 0,0 l/m 3,7 km/h (1 Bft) NO 45 -0,0 C 11,8 C 5,5 km/h (1 Bft)
15.03.2015 13:00 5,1 C 5,1 C 69 % 69 % 1023,5 hPa 0,0 l/m 4,5 km/h (1 Bft) NO 45 -0,1 C 11,2 C 11,7 km/h (2 Bft)
15.03.2015 13:05 5,1 C 5,1 C 69 % 69 % 1023,5 hPa 0,0 l/m 4,5 km/h (1 Bft) NO 45 -0,1 C 11,2 C 11,7 km/h (2 Bft)
15.03.2015 13:10 5,2 C 5,2 C 68 % 68 % 1023,6 hPa 0,0 l/m 4,7 km/h (1 Bft) N-NO 22 -0,2 C 10,1 C 4,0 km/h (1 Bft)
15.03.2015 13:15 5,5 C 5,5 C 68 % 68 % 1023,6 hPa 0,0 l/m 5,1 km/h (1 Bft) N-NO 22 0,1 C 9,4 C 5,5 km/h (1 Bft)
15.03.2015 13:20 5,7 C 5,7 C 67 % 67 % 1023,6 hPa 0,0 l/m 4,2 km/h (1 Bft) N-NO 22 0,1 C 9,3 C 5,1 km/h (1 Bft)
15.03.2015 13:25 5,9 C 5,9 C 67 % 67 % 1023,6 hPa 0,0 l/m 4,2 km/h (1 Bft) N-NO 22 0,3 C 9,6 C 3,4 km/h (1 Bft)
15.03.2015 13:30 6,1 C 6,1 C 66 % 66 % 1023,4 hPa 0,0 l/m 4,0 km/h (1 Bft) O-NO 67 0,2 C 10,1 C 1,6 km/h (1 Bft)
15.03.2015 13:35 6,5 C 6,5 C 65 % 65 % 1023,4 hPa 0,0 l/m 3,9 km/h (1 Bft) NO 45 0,4 C 11,8 C 6,6 km/h (2 Bft)
15.03.2015 13:40 6,6 C 6,6 C 65 % 65 % 1023,4 hPa 0,0 l/m 4,3 km/h (1 Bft) NO 45 0,5 C 12,2 C 4,5 km/h (1 Bft)
15.03.2015 13:45 6,8 C 6,8 C 64 % 64 % 1023,1 hPa 0,0 l/m 4,3 km/h (1 Bft) NO 45 0,5 C 12,7 C 6,6 km/h (2 Bft)
15.03.2015 13:50 6,8 C 6,8 C 64 % 64 % 1023,1 hPa 0,0 l/m 4,3 km/h (1 Bft) NO 45 0,5 C 12,7 C 6,6 km/h (2 Bft)
15.03.2015 13:55 6,9 C 6,9 C 64 % 64 % 1023,1 hPa 0,0 l/m 4,8 km/h (1 Bft) O-NO 67 0,6 C 12,9 C 7,4 km/h (2 Bft)
15.03.2015 14:00 7,1 C 7,1 C 63 % 63 % 1023,1 hPa 0,0 l/m 4,7 km/h (1 Bft) N-NO 22 0,5 C 13,1 C 6,1 km/h (2 Bft)
15.03.2015 14:05 7,3 C 7,3 C 63 % 63 % 1022,9 hPa 0,0 l/m 4,5 km/h (1 Bft) N-NO 22 0,7 C 13,2 C 2,9 km/h (1 Bft)
15.03.2015 14:10 7,3 C 7,3 C 63 % 63 % 1022,9 hPa 0,0 l/m 4,5 km/h (1 Bft) N-NO 22 0,7 C 13,2 C 2,9 km/h (1 Bft)
15.03.2015 14:15 7,4 C 7,4 C 63 % 63 % 1022,9 hPa 0,0 l/m 4,0 km/h (1 Bft) O-NO 67 0,8 C 13,4 C 5,5 km/h (1 Bft)
15.03.2015 14:20 7,7 C 7,7 C 62 % 62 % 1022,9 hPa 0,0 l/m 4,0 km/h (1 Bft) O-NO 67 0,9 C 13,4 C 2,7 km/h (1 Bft)
15.03.2015 14:25 7,7 C 7,7 C 62 % 62 % 1022,9 hPa 0,0 l/m 4,0 km/h (1 Bft) O-NO 67 0,9 C 13,4 C 2,7 km/h (1 Bft)
15.03.2015 14:30 7,7 C 7,7 C 62 % 62 % 1022,4 hPa 0,0 l/m 4,0 km/h (1 Bft) N-NO 22 0,9 C 13,6 C 2,3 km/h (1 Bft)
15.03.2015 14:35 7,8 C 7,8 C 62 % 62 % 1022,4 hPa 0,0 l/m 3,7 km/h (1 Bft) N-NO 22 1,0 C 13,8 C 7,9 km/h (2 Bft)
15.03.2015 14:40 7,8 C 7,8 C 62 % 62 % 1022,4 hPa 0,0 l/m 4,2 km/h (1 Bft) NO 45 1,0 C 13,5 C 6,4 km/h (2 Bft)
15.03.2015 14:45 7,8 C 7,8 C 62 % 62 % 1022,4 hPa 0,0 l/m 4,2 km/h (1 Bft) NO 45 1,0 C 13,5 C 6,4 km/h (2 Bft)
15.03.2015 14:50 7,8 C 7,8 C 62 % 62 % 1022,1 hPa 0,0 l/m 4,7 km/h (1 Bft) NO 45 1,0 C 13,3 C 8,9 km/h (2 Bft)
15.03.2015 14:55 7,8 C 7,8 C 62 % 62 % 1022,1 hPa 0,0 l/m 5,5 km/h (1 Bft) O-NO 67 1,0 C 12,9 C 5,1 km/h (1 Bft)
15.03.2015 15:00 7,8 C 7,8 C 62 % 62 % 1022,1 hPa 0,0 l/m 4,0 km/h (1 Bft) NO 45 1,0 C 13,0 C 8,9 km/h (2 Bft)
15.03.2015 15:05 7,8 C 7,8 C 62 % 62 % 1022,1 hPa 0,0 l/m 4,0 km/h (1 Bft) NO 45 1,0 C 13,0 C 8,9 km/h (2 Bft)
15.03.2015 15:10 7,7 C 7,7 C 60 % 60 % 1021,5 hPa 0,0 l/m 5,1 km/h (1 Bft) NO 45 0,4 C 12,4 C 3,2 km/h (1 Bft)
15.03.2015 15:15 7,7 C 7,7 C 60 % 60 % 1021,5 hPa 0,0 l/m 5,1 km/h (1 Bft) NO 45 0,4 C 12,4 C 3,2 km/h (1 Bft)
15.03.2015 15:20 7,8 C 7,8 C 59 % 59 % 1021,5 hPa 0,0 l/m 5,1 km/h (1 Bft) NO 45 0,3 C 12,3 C 9,3 km/h (2 Bft)
15.03.2015 15:25 7,8 C 7,8 C 59 % 59 % 1021,5 hPa 0,0 l/m 5,1 km/h (1 Bft) NO 45 0,3 C 12,3 C 9,3 km/h (2 Bft)
15.03.2015 15:30 7,8 C 7,8 C 59 % 59 % 1021,1 hPa 0,0 l/m 5,5 km/h (1 Bft) N-NO 22 0,3 C 12,2 C 4,8 km/h (1 Bft)
15.03.2015 15:35 7,8 C 7,8 C 59 % 59 % 1021,1 hPa 0,0 l/m 5,0 km/h (1 Bft) O-NO 67 0,3 C 12,1 C 4,5 km/h (1 Bft)
15.03.2015 15:40 7,6 C 7,6 C 59 % 59 % 1021,1 hPa 0,0 l/m 4,0 km/h (1 Bft) N-NO 22 0,1 C 12,1 C 6,9 km/h (2 Bft)
15.03.2015 15:45 7,6 C 7,6 C 59 % 59 % 1021,1 hPa 0,0 l/m 4,0 km/h (1 Bft) N-NO 22 0,1 C 12,1 C 6,9 km/h (2 Bft)
15.03.2015 15:50 7,5 C 7,5 C 59 % 59 % 1020,9 hPa 0,0 l/m 4,3 km/h (1 Bft) O-NO 67 0,0 C 11,8 C 3,7 km/h (1 Bft)
15.03.2015 15:55 7,5 C 7,5 C 59 % 59 % 1020,9 hPa 0,0 l/m 4,7 km/h (1 Bft) O-SO 112 0,0 C 11,3 C 2,7 km/h (1 Bft)
15.03.2015 16:00 7,4 C 7,4 C 59 % 59 % 1020,9 hPa 0,0 l/m 4,5 km/h (1 Bft) NO 45 -0,1 C 11,0 C 10,0 km/h (2 Bft)
15.03.2015 16:05 7,4 C 7,4 C 59 % 59 % 1020,9 hPa 0,0 l/m 4,5 km/h (1 Bft) NO 45 -0,1 C 11,0 C 10,0 km/h (2 Bft)
15.03.2015 16:10 7,3 C 7,3 C 60 % 60 % 1020,8 hPa 0,0 l/m 4,0 km/h (1 Bft) O-NO 67 0,1 C 10,0 C 3,4 km/h (1 Bft)
15.03.2015 16:15 7,2 C 7,2 C 60 % 60 % 1020,8 hPa 0,0 l/m 2,4 km/h (1 Bft) N-NO 22 -0,0 C 9,5 C 2,6 km/h (1 Bft)
15.03.2015 16:20 7,2 C 7,2 C 60 % 60 % 1020,8 hPa 0,0 l/m 2,4 km/h (1 Bft) N-NO 22 -0,0 C 9,5 C 2,6 km/h (1 Bft)
15.03.2015 16:25 7,2 C 7,2 C 60 % 60 % 1020,6 hPa 0,0 l/m 1,8 km/h (1 Bft) NO 45 -0,0 C 9,6 C 5,5 km/h (1 Bft)
15.03.2015 16:30 7,2 C 7,2 C 60 % 60 % 1020,6 hPa 0,0 l/m 1,8 km/h (1 Bft) NO 45 -0,0 C 9,6 C 5,5 km/h (1 Bft)
15.03.2015 16:35 7,2 C 7,2 C 60 % 60 % 1020,6 hPa 0,0 l/m 2,7 km/h (1 Bft) N-NO 22 -0,0 C 9,3 C 8,5 km/h (2 Bft)
15.03.2015 16:40 7,2 C 7,2 C 60 % 60 % 1020,6 hPa 0,0 l/m 2,7 km/h (1 Bft) N-NO 22 -0,0 C 9,3 C 8,5 km/h (2 Bft)
15.03.2015 16:45 7,1 C 7,1 C 60 % 60 % 1020,6 hPa 0,0 l/m 2,4 km/h (1 Bft) O-NO 67 -0,1 C 9,2 C 0,0 km/h (0 Bft)
15.03.2015 16:50 7,0 C 7,0 C 60 % 60 % 1020,6 hPa 0,0 l/m 2,3 km/h (1 Bft) N-NO 22 -0,2 C 9,1 C 1,6 km/h (1 Bft)
15.03.2015 16:55 6,9 C 6,9 C 61 % 61 % 1020,6 hPa 0,0 l/m 1,8 km/h (1 Bft) O-SO 112 -0,1 C 8,9 C 2,9 km/h (1 Bft)
15.03.2015 17:00 6,9 C 6,9 C 61 % 61 % 1020,6 hPa 0,0 l/m 2,3 km/h (1 Bft) O-NO 67 -0,1 C 8,5 C 2,6 km/h (1 Bft)
15.03.2015 17:05 6,9 C 6,9 C 61 % 61 % 1020,6 hPa 0,0 l/m 2,3 km/h (1 Bft) O-NO 67 -0,1 C 8,3 C 2,6 km/h (1 Bft)
15.03.2015 17:10 6,7 C 6,7 C 61 % 61 % 1020,6 hPa 0,0 l/m 1,8 km/h (1 Bft) N-NO 22 -0,3 C 7,9 C 3,4 km/h (1 Bft)
15.03.2015 17:15 6,5 C 6,5 C 62 % 62 % 1020,6 hPa 0,0 l/m 2,3 km/h (1 Bft) N-NO 22 -0,2 C 6,9 C 2,4 km/h (1 Bft)
15.03.2015 17:20 6,5 C 6,5 C 62 % 62 % 1020,6 hPa 0,0 l/m 2,3 km/h (1 Bft) N-NO 22 -0,2 C 6,9 C 2,4 km/h (1 Bft)
15.03.2015 17:25 6,4 C 6,4 C 62 % 62 % 1020,6 hPa 0,0 l/m 1,9 km/h (1 Bft) N-NO 22 -0,3 C 6,5 C 4,2 km/h (1 Bft)
15.03.2015 17:30 6,2 C 6,2 C 63 % 63 % 1020,8 hPa 0,0 l/m 2,1 km/h (1 Bft) O-NO 67 -0,3 C 6,1 C 2,4 km/h (1 Bft)
15.03.2015 17:35 6,1 C 6,2 C 63 % 63 % 1020,8 hPa 0,0 l/m 1,6 km/h (1 Bft) N-NW 337 -0,3 C 5,9 C 0,0 km/h (0 Bft)
15.03.2015 17:40 5,8 C 5,9 C 65 % 65 % 1020,8 hPa 0,0 l/m 0,8 km/h (0 Bft) O-NO 67 -0,2 C 5,6 C 0,0 km/h (0 Bft)
15.03.2015 17:45 5,6 C 5,8 C 65 % 65 % 1020,8 hPa 0,0 l/m 0,5 km/h (0 Bft) NO 45 -0,3 C 5,4 C 0,0 km/h (0 Bft)
15.03.2015 17:50 5,3 C 5,6 C 66 % 66 % 1020,8 hPa 0,0 l/m 0,3 km/h (0 Bft) NO 45 -0,2 C 5,0 C 0,0 km/h (0 Bft)
15.03.2015 17:55 5,3 C 5,5 C 66 % 66 % 1020,8 hPa 0,0 l/m 0,5 km/h (0 Bft) O-NO 67 -0,3 C 4,7 C 0,0 km/h (0 Bft)
15.03.2015 18:00 5,2 C 5,6 C 67 % 67 % 1020,8 hPa 0,0 l/m 0,8 km/h (0 Bft) O-NO 67 -0,0 C 4,4 C 0,0 km/h (0 Bft)
15.03.2015 18:05 5,2 C 5,6 C 67 % 67 % 1020,8 hPa 0,0 l/m 0,8 km/h (0 Bft) O-NO 67 -0,0 C 4,4 C 0,0 km/h (0 Bft)
15.03.2015 18:10 4,9 C 5,5 C 67 % 67 % 1020,9 hPa 0,0 l/m 0,6 km/h (0 Bft) S-SO 157 -0,1 C 4,2 C 0,0 km/h (0 Bft)
15.03.2015 18:15 4,8 C 5,5 C 67 % 67 % 1020,9 hPa 0,0 l/m 0,2 km/h (0 Bft) SO 135 -0,1 C 4,0 C 0,0 km/h (0 Bft)
15.03.2015 18:20 4,5 C 5,3 C 67 % 67 % 1020,9 hPa 0,0 l/m 0,3 km/h (0 Bft) S-SO 157 -0,3 C 3,6 C 0,0 km/h (0 Bft)
15.03.2015 18:25 4,5 C 5,3 C 67 % 67 % 1020,9 hPa 0,0 l/m 0,3 km/h (0 Bft) S-SO 157 -0,3 C 3,6 C 0,0 km/h (0 Bft)
15.03.2015 18:30 4,1 C 5,0 C 68 % 68 % 1020,9 hPa 0,0 l/m 0,2 km/h (0 Bft) SO 135 -0,4 C 3,2 C 0,0 km/h (0 Bft)
15.03.2015 18:35 3,9 C 4,9 C 68 % 68 % 1020,9 hPa 0,0 l/m 0,0 km/h (0 Bft) SO 135 -0,5 C 2,9 C 0,0 km/h (0 Bft)
15.03.2015 18:40 3,8 C 4,7 C 69 % 69 % 1020,9 hPa 0,0 l/m 0,0 km/h (0 Bft) S-SO 157 -0,5 C 2,6 C 0,0 km/h (0 Bft)
15.03.2015 18:45 3,7 C 4,7 C 69 % 69 % 1020,9 hPa 0,0 l/m 0,6 km/h (0 Bft) SO 135 -0,5 C 2,4 C 2,1 km/h (1 Bft)
15.03.2015 18:50 3,7 C 4,7 C 69 % 69 % 1020,9 hPa 0,0 l/m 0,6 km/h (0 Bft) SO 135 -0,5 C 2,4 C 2,1 km/h (1 Bft)
15.03.2015 18:55 3,1 C 4,3 C 69 % 69 % 1020,9 hPa 0,0 l/m 0,6 km/h (0 Bft) S-SO 157 -0,9 C 2,2 C 0,0 km/h (0 Bft)
15.03.2015 19:00 2,9 C 3,7 C 70 % 70 % 1020,9 hPa 0,0 l/m 0,0 km/h (0 Bft) S-SO 157 -1,3 C 1,5 C 0,0 km/h (0 Bft)
15.03.2015 19:05 2,3 C 3,3 C 70 % 70 % 1020,9 hPa 0,0 l/m 0,0 km/h (0 Bft) SO 135 -1,6 C 0,9 C 0,0 km/h (0 Bft)
15.03.2015 19:10 2,3 C 3,3 C 70 % 70 % 1020,9 hPa 0,0 l/m 0,0 km/h (0 Bft) SO 135 -1,6 C 0,9 C 0,0 km/h (0 Bft)
15.03.2015 19:15 2,4 C 3,2 C 71 % 71 % 1020,9 hPa 0,0 l/m 0,2 km/h (0 Bft) SO 135 -1,5 C 0,9 C 1,6 km/h (1 Bft)
15.03.2015 19:20 2,7 C 3,3 C 71 % 71 % 1020,9 hPa 0,0 l/m 0,2 km/h (0 Bft) SO 135 -1,4 C 1,0 C 1,6 km/h (1 Bft)
15.03.2015 19:25 2,7 C 3,3 C 71 % 71 % 1020,9 hPa 0,0 l/m 0,2 km/h (0 Bft) SO 135 -1,4 C 1,0 C 1,6 km/h (1 Bft)
15.03.2015 19:30 2,9 C 3,8 C 72 % 72 % 1020,9 hPa 0,0 l/m 0,5 km/h (0 Bft) SO 135 -0,8 C 1,3 C 0,0 km/h (0 Bft)
15.03.2015 19:35 2,6 C 3,6 C 71 % 71 % 1020,9 hPa 0,0 l/m 0,5 km/h (0 Bft) S 180 -1,2 C 1,5 C 0,0 km/h (0 Bft)
15.03.2015 19:40 2,4 C 3,3 C 71 % 71 % 1020,9 hPa 0,0 l/m 0,3 km/h (0 Bft) S-SO 157 -1,4 C 1,0 C 0,0 km/h (0 Bft)
15.03.2015 19:45 2,6 C 3,2 C 72 % 72 % 1020,9 hPa 0,0 l/m 1,6 km/h (1 Bft) S-SO 157 -1,3 C 1,3 C 2,3 km/h (1 Bft)
15.03.2015 19:50 2,6 C 3,2 C 72 % 72 % 1020,9 hPa 0,0 l/m 1,6 km/h (1 Bft) S-SO 157 -1,3 C 1,3 C 2,3 km/h (1 Bft)
15.03.2015 19:55 2,4 C 3,1 C 72 % 72 % 1020,9 hPa 0,0 l/m 1,9 km/h (1 Bft) SO 135 -1,4 C 1,3 C 1,9 km/h (1 Bft)
15.03.2015 20:00 1,7 C 2,4 C 73 % 73 % 1020,9 hPa 0,0 l/m 1,3 km/h (1 Bft) SO 135 -1,9 C 0,8 C 2,1 km/h (1 Bft)
15.03.2015 20:05 2,0 C 2,6 C 74 % 74 % 1020,9 hPa 0,0 l/m 0,8 km/h (0 Bft) SO 135 -1,6 C 0,7 C 2,6 km/h (1 Bft)
15.03.2015 20:10 2,0 C 2,9 C 74 % 74 % 1020,9 hPa 0,0 l/m 0,6 km/h (0 Bft) SO 135 -1,3 C 0,7 C 1,6 km/h (1 Bft)
15.03.2015 20:15 1,9 C 2,7 C 74 % 74 % 1020,9 hPa 0,0 l/m 0,5 km/h (0 Bft) O-SO 112 -1,5 C 0,6 C 0,0 km/h (0 Bft)
15.03.2015 20:20 1,2 C 2,1 C 73 % 73 % 1020,9 hPa 0,0 l/m 0,2 km/h (0 Bft) O-SO 112 -2,2 C 0,1 C 0,0 km/h (0 Bft)
15.03.2015 20:25 0,9 C 1,7 C 74 % 74 % 1020,9 hPa 0,0 l/m 0,0 km/h (0 Bft) SO 135 -2,4 C -0,2 C 0,0 km/h (0 Bft)
15.03.2015 20:30 1,2 C 2,0 C 74 % 74 % 1020,8 hPa 0,0 l/m 0,0 km/h (0 Bft) O-NO 67 -2,1 C -0,3 C 0,0 km/h (0 Bft)
15.03.2015 20:35 0,7 C 1,5 C 75 % 75 % 1020,8 hPa 0,0 l/m 0,0 km/h (0 Bft) O-NO 67 -2,4 C -0,8 C 0,0 km/h (0 Bft)
15.03.2015 20:40 0,2 C 1,2 C 75 % 75 % 1020,8 hPa 0,0 l/m 0,0 km/h (0 Bft) S-SW 202 -2,7 C -1,1 C 0,0 km/h (0 Bft)
15.03.2015 20:45 0,2 C 1,2 C 75 % 75 % 1020,8 hPa 0,0 l/m 0,0 km/h (0 Bft) S-SW 202 -2,7 C -1,1 C 0,0 km/h (0 Bft)
15.03.2015 20:50 -0,1 C 0,6 C 75 % 75 % 1020,8 hPa 0,0 l/m 0,2 km/h (0 Bft) N-NO 22 -3,3 C -1,5 C 0,0 km/h (0 Bft)
15.03.2015 20:55 -0,2 C 0,4 C 75 % 75 % 1020,8 hPa 0,0 l/m 0,5 km/h (0 Bft) S 180 -3,5 C -1,7 C 3,4 km/h (1 Bft)
15.03.2015 21:00 0,0 C 0,6 C 76 % 76 % 1020,8 hPa 0,0 l/m 1,1 km/h (1 Bft) SW 225 -3,1 C -1,5 C 3,1 km/h (1 Bft)
15.03.2015 21:05 0,0 C 0,6 C 76 % 76 % 1020,8 hPa 0,0 l/m 1,1 km/h (1 Bft) SW 225 -3,1 C -1,5 C 3,1 km/h (1 Bft)
15.03.2015 21:10 0,1 C 0,6 C 76 % 76 % 1020,8 hPa 0,0 l/m 0,8 km/h (0 Bft) NO 45 -3,1 C -1,6 C 0,0 km/h (0 Bft)
15.03.2015 21:15 -0,3 C 0,4 C 76 % 76 % 1020,8 hPa 0,0 l/m 0,3 km/h (0 Bft) S 180 -3,3 C -1,7 C 0,0 km/h (0 Bft)
15.03.2015 21:20 0,3 C 0,9 C 77 % 77 % 1020,8 hPa 0,0 l/m 1,3 km/h (1 Bft) SO 135 -2,7 C -1,4 C 0,0 km/h (0 Bft)
15.03.2015 21:25 0,3 C 0,9 C 77 % 77 % 1020,8 hPa 0,0 l/m 1,3 km/h (1 Bft) SO 135 -2,7 C -1,4 C 0,0 km/h (0 Bft)
15.03.2015 21:30 0,2 C 0,9 C 77 % 77 % 1020,6 hPa 0,0 l/m 1,1 km/h (1 Bft) N-NO 22 -2,7 C -1,3 C 2,7 km/h (1 Bft)
15.03.2015 21:35 -0,1 C 0,4 C 76 % 76 % 1020,6 hPa 0,0 l/m 0,6 km/h (0 Bft) O-NO 67 -3,3 C -1,5 C 0,0 km/h (0 Bft)
15.03.2015 21:40 -0,3 C 0,4 C 77 % 77 % 1020,6 hPa 0,0 l/m 0,2 km/h (0 Bft) SO 135 -3,1 C -1,6 C 0,0 km/h (0 Bft)
15.03.2015 21:45 -0,2 C 0,4 C 77 % 77 % 1020,6 hPa 0,0 l/m 0,5 km/h (0 Bft) W-NW 292 -3,1 C -1,8 C 0,0 km/h (0 Bft)
15.03.2015 21:50 -0,5 C 0,3 C 77 % 77 % 1020,8 hPa 0,0 l/m 0,3 km/h (0 Bft) SW 225 -3,2 C -2,0 C 0,0 km/h (0 Bft)
15.03.2015 21:55 -0,5 C 0,3 C 77 % 77 % 1020,8 hPa 0,0 l/m 0,2 km/h (0 Bft) NO 45 -3,2 C -2,1 C 1,6 km/h (1 Bft)
15.03.2015 22:00 -0,7 C -0,2 C 77 % 77 % 1020,8 hPa 0,0 l/m 0,5 km/h (0 Bft) W 270 -3,7 C -2,3 C 0,0 km/h (0 Bft)
15.03.2015 22:05 -0,7 C -0,2 C 77 % 77 % 1020,8 hPa 0,0 l/m 0,5 km/h (0 Bft) W 270 -3,7 C -2,3 C 0,0 km/h (0 Bft)
15.03.2015 22:10 -0,7 C -0,2 C 77 % 77 % 1020,9 hPa 0,0 l/m 0,6 km/h (0 Bft) N-NO 22 -3,7 C -2,3 C 0,0 km/h (0 Bft)
15.03.2015 22:15 -1,1 C -0,3 C 77 % 77 % 1020,9 hPa 0,0 l/m 0,0 km/h (0 Bft) W 270 -3,8 C -2,6 C 0,0 km/h (0 Bft)
15.03.2015 22:20 -0,9 C -0,4 C 77 % 77 % 1020,9 hPa 0,0 l/m 0,5 km/h (0 Bft) SW 225 -3,9 C -2,7 C 2,4 km/h (1 Bft)
15.03.2015 22:25 -0,9 C -0,4 C 77 % 77 % 1020,9 hPa 0,0 l/m 0,5 km/h (0 Bft) SW 225 -3,9 C -2,7 C 2,4 km/h (1 Bft)
15.03.2015 22:30 -0,6 C 0,0 C 78 % 78 % 1021,1 hPa 0,0 l/m 1,0 km/h (0 Bft) N-NO 22 -3,4 C -2,4 C 0,0 km/h (0 Bft)
15.03.2015 22:35 -1,4 C -0,9 C 77 % 77 % 1021,1 hPa 0,0 l/m 0,5 km/h (0 Bft) O-SO 112 -4,4 C -2,8 C 0,0 km/h (0 Bft)
15.03.2015 22:40 -1,4 C -0,9 C 77 % 77 % 1021,1 hPa 0,0 l/m 0,5 km/h (0 Bft) O-SO 112 -4,4 C -2,8 C 0,0 km/h (0 Bft)
15.03.2015 22:45 -0,7 C -0,4 C 78 % 78 % 1021,1 hPa 0,0 l/m 1,4 km/h (1 Bft) SO 135 -3,8 C -2,6 C 2,7 km/h (1 Bft)
15.03.2015 22:50 -0,8 C -0,2 C 78 % 78 % 1021,1 hPa 0,0 l/m 2,1 km/h (1 Bft) W 270 -3,6 C -2,2 C 1,6 km/h (1 Bft)
15.03.2015 22:55 -1,3 C -0,7 C 78 % 78 % 1021,1 hPa 0,0 l/m 0,5 km/h (0 Bft) O-SO 112 -4,0 C -2,6 C 3,4 km/h (1 Bft)
15.03.2015 23:00 -1,3 C -0,7 C 78 % 78 % 1021,1 hPa 0,0 l/m 0,5 km/h (0 Bft) O-SO 112 -4,0 C -2,6 C 3,4 km/h (1 Bft)
15.03.2015 23:05 -0,3 C 0,1 C 78 % 78 % 1021,1 hPa 0,0 l/m 1,4 km/h (1 Bft) SO 135 -3,3 C -2,3 C 2,6 km/h (1 Bft)
15.03.2015 23:10 -1,4 C -0,7 C 77 % 77 % 1021,0 hPa 0,0 l/m 0,3 km/h (0 Bft) NW 315 -4,2 C -2,3 C 0,0 km/h (0 Bft)
15.03.2015 23:15 -1,5 C -0,9 C 77 % 77 % 1021,0 hPa 0,0 l/m 0,0 km/h (0 Bft) O 90 -4,4 C -2,6 C 1,8 km/h (1 Bft)
15.03.2015 23:20 -1,4 C -0,9 C 78 % 78 % 1021,0 hPa 0,0 l/m 0,3 km/h (0 Bft) O-NO 67 -4,2 C -2,6 C 0,0 km/h (0 Bft)
15.03.2015 23:25 -1,5 C -1,0 C 78 % 78 % 1021,1 hPa 0,0 l/m 0,3 km/h (0 Bft) O-NO 67 -4,3 C -2,6 C 0,0 km/h (0 Bft)
15.03.2015 23:30 -1,5 C -1,0 C 78 % 78 % 1021,1 hPa 0,0 l/m 0,0 km/h (0 Bft) O-SO 112 -4,3 C -2,7 C 0,0 km/h (0 Bft)
15.03.2015 23:35 -1,2 C -0,8 C 78 % 78 % 1021,1 hPa 0,0 l/m 0,2 km/h (0 Bft) SO 135 -4,1 C -2,6 C 0,0 km/h (0 Bft)
15.03.2015 23:40 -1,1 C -0,7 C 78 % 78 % 1021,1 hPa 0,0 l/m 0,3 km/h (0 Bft) W 270 -4,0 C -2,5 C 3,5 km/h (1 Bft)
15.03.2015 23:45 -1,1 C -0,7 C 78 % 78 % 1020,9 hPa 0,0 l/m 0,8 km/h (0 Bft) O-NO 67 -4,0 C -2,3 C 0,0 km/h (0 Bft)
15.03.2015 23:50 -1,2 C -0,9 C 78 % 78 % 1020,9 hPa 0,0 l/m 1,1 km/h (1 Bft) N-NO 22 -4,2 C -2,3 C 1,6 km/h (1 Bft)
15.03.2015 23:55 -1,2 C -1,0 C 78 % 78 % 1020,9 hPa 0,0 l/m 0,5 km/h (0 Bft) S-SO 157 -4,3 C -2,4 C 1,9 km/h (1 Bft)
_ Min-Zeit 23:30 23:55 16:05 16:05 21:45 - 23:30 - - 23:15 22:40 23:45
Minimum _ -1,5 C -1,0 C 59 % 59 % 1020,6 hPa - 0,0 km/h (0 Bft) - - -4,4 C -2,8 C 0,0 km/h (0 Bft)
_ Max-Zeit 15:35 15:35 10:35 10:35 13:25 23:55 15:30 - - 15:05 14:35 13:05
Maximum _ 7,8 C 7,8 C 85 % 85 % 1023,6 hPa 0,0 l/m 5,5 km/h
N-NO (1 Bft)
- - 1,0 C 13,8 C 11,7 km/h
NO (2 Bft)
Durchschnitt _ 1,7 C 1,9 C 76 % 76 % 1021,5 hPa #0,0 l/m 1,8 km/h (1 Bft) NO - -2,0 C 2,5 C 2,6 km/h (1 Bft)